datetime,flow
1992-08-12,144.0
1992-08-13,120.0
1992-08-14,125.0
1992-08-15,167.0
1992-08-16,140.0
1992-08-17,150.0
1992-08-18,169.0
1992-08-19,158.0
1992-08-20,158.0
1992-08-21,151.0
1992-08-22,152.0
1992-08-23,149.0
1992-08-24,165.0
1992-08-25,158.0
1992-08-26,148.0
1992-08-27,168.0
1992-08-28,149.0
1992-08-29,125.0
1992-08-30,123.0
1992-08-31,145.0
1992-09-01,158.0
1992-09-02,153.0
1992-09-03,151.0
1992-09-04,156.0
1992-09-05,155.0
1992-09-06,129.0
1992-09-07,133.0
1992-09-08,136.0
1992-09-09,126.0
1992-09-10,122.0
1992-09-11,131.0
1992-09-12,129.0
1992-09-13,127.0
1992-09-14,130.0
1992-09-15,127.0
1992-09-16,133.0
1992-09-17,135.0
1992-09-18,130.0
1992-09-19,130.0
1992-09-20,128.0
1992-09-21,128.0
1992-09-22,127.0
1992-09-23,127.0
1992-09-24,140.0
1992-09-25,610.0
1992-09-26,935.0
1992-09-27,900.0
1992-09-28,880.0
1992-09-29,859.0
1992-09-30,626.0
1992-10-01,380.0
1992-10-02,201.0
1992-10-03,154.0
1992-10-04,141.0
1992-10-05,145.0
1992-10-06,142.0
1992-10-07,133.0
1992-10-08,133.0
1992-10-09,126.0
1992-10-10,139.0
1992-10-11,121.0
1992-10-12,117.0
1992-10-13,120.0
1992-10-14,119.0
1992-10-15,116.0
1992-10-16,117.0
1992-10-17,334.0
1992-10-18,796.0
1992-10-19,1050.0
1992-10-20,1080.0
1992-10-21,1070.0
1992-10-22,911.0
1992-10-23,583.0
1992-10-24,174.0
1992-10-25,99.0
1992-10-26,91.0
1992-10-27,76.0
1992-10-28,67.0
1992-10-29,67.0
1992-10-30,77.0
1992-10-31,88.0
1992-11-01,99.0
1992-11-02,54.0
1992-11-03,42.0
1992-11-04,39.0
1992-11-05,38.0
1992-11-06,35.0
1992-11-07,34.0
1992-11-08,32.0
1992-11-09,31.0
1992-11-10,30.0
1992-11-11,29.0
1992-11-12,29.0
1992-11-13,29.0
1992-11-14,29.0
1992-11-15,28.0
1992-11-16,28.0
1992-11-17,27.0
1992-11-18,26.0
1992-11-19,25.0
1992-11-20,25.0
1992-11-21,27.0
1992-11-22,26.0
1992-11-23,26.0
1992-11-24,26.0
1992-11-25,25.0
1992-11-26,25.0
1992-11-27,24.0
1992-11-28,24.0
1992-11-29,24.0
1992-11-30,23.0
1992-12-01,23.0
1992-12-02,22.0
1992-12-03,23.0
1992-12-04,23.0
1992-12-05,47.0
1992-12-06,36.0
1992-12-07,36.0
1992-12-08,29.0
1992-12-09,23.0
1992-12-10,23.0
1992-12-11,23.0
1992-12-12,22.0
1992-12-13,22.0
1992-12-14,22.0
1992-12-15,22.0
1992-12-16,21.0
1992-12-17,21.0
1992-12-18,20.0
1992-12-19,20.0
1992-12-20,19.0
1992-12-21,19.0
1992-12-22,19.0
1992-12-23,19.0
1992-12-24,19.0
1992-12-25,18.0
1992-12-26,18.0
1992-12-27,18.0
1992-12-28,18.0
1992-12-29,17.0
1992-12-30,17.0
1992-12-31,17.0
1993-01-01,21.0
1993-01-02,19.0
1993-01-03,20.0
1993-01-04,20.0
1993-01-05,20.0
1993-01-06,19.0
1993-01-07,19.0
1993-01-08,20.0
1993-01-09,20.0
1993-01-10,21.0
1993-01-11,21.0
1993-01-12,21.0
1993-01-13,20.0
1993-01-14,20.0
1993-01-15,19.0
1993-01-16,19.0
1993-01-17,19.0
1993-01-18,18.0
1993-01-19,20.0
1993-01-20,19.0
1993-01-21,18.0
1993-01-22,17.0
1993-01-23,17.0
1993-01-24,17.0
1993-01-25,18.0
1993-01-26,17.0
1993-01-27,16.0
1993-01-28,16.0
1993-01-29,16.0
1993-01-30,16.0
1993-01-31,16.0
1993-02-01,15.0
1993-02-02,15.0
1993-02-03,15.0
1993-02-04,15.0
1993-02-05,15.0
1993-02-06,15.0
1993-02-07,14.0
1993-02-08,14.0
1993-02-09,15.0
1993-02-10,15.0
1993-02-11,15.0
1993-02-12,14.0
1993-02-13,14.0
1993-02-14,15.0
1993-02-15,15.0
1993-02-16,15.0
1993-02-17,15.0
1993-02-18,15.0
1993-02-19,16.0
1993-02-20,15.0
1993-02-21,15.0
1993-02-22,15.0
1993-02-23,15.0
1993-02-24,16.0
1993-02-25,16.0
1993-02-26,16.0
1993-02-27,16.0
1993-02-28,17.0
1993-03-01,17.0
1993-03-02,17.0
1993-03-03,38.0
1993-03-04,32.0
1993-03-05,29.0
1993-03-06,25.0
1993-03-07,30.0
1993-03-08,32.0
1993-03-09,35.0
1993-03-10,34.0
1993-03-11,34.0
1993-03-12,35.0
1993-03-13,35.0
1993-03-14,38.0
1993-03-15,40.0
1993-03-16,38.0
1993-03-17,39.0
1993-03-18,40.0
1993-03-19,39.0
1993-03-20,42.0
1993-03-21,39.0
1993-03-22,48.0
1993-03-23,49.0
1993-03-24,45.0
1993-03-25,51.0
1993-03-26,56.0
1993-03-27,65.0
1993-03-28,66.0
1993-03-29,43.0
1993-03-30,30.0
1993-03-31,25.0
1993-04-01,23.0
1993-04-02,21.0
1993-04-03,90.0
1993-04-04,361.0
1993-04-05,366.0
1993-04-06,423.0
1993-04-07,421.0
1993-04-08,561.0
1993-04-09,792.0
1993-04-10,1050.0
1993-04-11,1050.0
1993-04-12,1040.0
1993-04-13,1030.0
1993-04-14,1040.0
1993-04-15,1020.0
1993-04-16,1030.0
1993-04-17,1030.0
1993-04-18,983.0
1993-04-19,721.0
1993-04-20,445.0
1993-04-21,250.0
1993-04-22,143.0
1993-04-23,110.0
1993-04-24,106.0
1993-04-25,111.0
1993-04-26,112.0
1993-04-27,131.0
1993-04-28,142.0
1993-04-29,155.0
1993-04-30,151.0
1993-05-01,158.0
1993-05-02,166.0
1993-05-03,163.0
1993-05-04,202.0
1993-05-05,249.0
1993-05-06,189.0
1993-05-07,162.0
1993-05-08,144.0
1993-05-09,135.0
1993-05-10,159.0
1993-05-11,139.0
1993-05-12,125.0
1993-05-13,120.0
1993-05-14,92.0
1993-05-15,97.0
1993-05-16,116.0
1993-05-17,130.0
1993-05-18,115.0
1993-05-19,135.0
1993-05-20,162.0
1993-05-21,233.0
1993-05-22,232.0
1993-05-23,226.0
1993-05-24,185.0
1993-05-25,206.0
1993-05-26,176.0
1993-05-27,266.0
1993-05-28,287.0
1993-05-29,301.0
1993-05-30,299.0
1993-05-31,294.0
1993-06-01,301.0
1993-06-02,313.0
1993-06-03,317.0
1993-06-04,321.0
1993-06-05,295.0
1993-06-06,274.0
1993-06-07,272.0
1993-06-08,236.0
1993-06-09,221.0
1993-06-10,197.0
1993-06-11,165.0
1993-06-12,141.0
1993-06-13,126.0
1993-06-14,128.0
1993-06-15,120.0
1993-06-16,106.0
1993-06-17,107.0
1993-06-18,108.0
1993-06-19,126.0
1993-06-20,110.0
1993-06-21,119.0
1993-06-22,109.0
1993-06-23,109.0
1993-06-24,236.0
1993-06-25,756.0
1993-06-26,859.0
1993-06-27,643.0
1993-06-28,206.0
1993-06-29,164.0
1993-06-30,131.0
1993-07-01,106.0
1993-07-02,95.0
1993-07-03,158.0
1993-07-04,252.0
1993-07-05,259.0
1993-07-06,274.0
1993-07-07,296.0
1993-07-08,716.0
1993-07-09,751.0
1993-07-10,774.0
1993-07-11,783.0
1993-07-12,804.0
1993-07-13,814.0
1993-07-14,836.0
1993-07-15,1100.0
1993-07-16,1090.0
1993-07-17,1070.0
1993-07-18,1070.0
1993-07-19,1100.0
1993-07-20,1080.0
1993-07-21,1170.0
1993-07-22,1110.0
1993-07-23,1130.0
1993-07-24,1120.0
1993-07-25,1120.0
1993-07-26,1090.0
1993-07-27,569.0
1993-07-28,154.0
1993-07-29,70.0
1993-07-30,57.0
1993-07-31,56.0
1993-08-01,55.0
1993-08-02,61.0
1993-08-03,74.0
1993-08-04,275.0
1993-08-05,133.0
1993-08-06,139.0
1993-08-07,130.0
1993-08-08,114.0
1993-08-09,141.0
1993-08-10,123.0
1993-08-11,108.0
1993-08-12,112.0
1993-08-13,126.0
1993-08-14,112.0
1993-08-15,102.0
1993-08-16,91.0
1993-08-17,174.0
1993-08-18,144.0
1993-08-19,129.0
1993-08-20,108.0
1993-08-21,97.0
1993-08-22,78.0
1993-08-23,74.0
1993-08-24,89.0
1993-08-25,73.0
1993-08-26,78.0
1993-08-27,86.0
1993-08-28,92.0
1993-08-29,85.0
1993-08-30,73.0
1993-08-31,87.0
1993-09-01,92.0
1993-09-02,78.0
1993-09-03,83.0
1993-09-04,72.0
1993-09-05,80.0
1993-09-06,74.0
1993-09-07,107.0
1993-09-08,156.0
1993-09-09,104.0
1993-09-10,108.0
1993-09-11,114.0
1993-09-12,102.0
1993-09-13,123.0
1993-09-14,139.0
1993-09-15,120.0
1993-09-16,107.0
1993-09-17,101.0
1993-09-18,89.0
1993-09-19,99.0
1993-09-20,103.0
1993-09-21,86.0
1993-09-22,94.0
1993-09-23,106.0
1993-09-24,800.0
1993-09-25,450.0
1993-09-26,300.0
1993-09-27,100.0
1993-09-28,80.0
1993-09-29,70.0
1993-09-30,70.0
1993-10-01,200.0
1993-10-02,250.0
1993-10-03,270.0
1993-10-04,270.0
1993-10-05,280.0
1993-10-06,300.0
1993-10-07,290.0
1993-10-08,326.0
1993-10-09,556.0
1993-10-10,581.0
1993-10-11,549.0
1993-10-12,637.0
1993-10-13,1020.0
1993-10-14,1060.0
1993-10-15,1070.0
1993-10-16,1070.0
1993-10-17,689.0
1993-10-18,426.0
1993-10-19,324.0
1993-10-20,204.0
1993-10-21,116.0
1993-10-22,109.0
1993-10-23,108.0
1993-10-24,103.0
1993-10-25,98.0
1993-10-26,100.0
1993-10-27,95.0
1993-10-28,104.0
1993-10-29,94.0
1993-10-30,92.0
1993-10-31,94.0
1993-11-01,111.0
1993-11-02,63.0
1993-11-03,44.0
1993-11-04,40.0
1993-11-05,38.0
1993-11-06,36.0
1993-11-07,36.0
1993-11-08,36.0
1993-11-09,36.0
1993-11-10,35.0
1993-11-11,34.0
1993-11-12,34.0
1993-11-13,35.0
1993-11-14,33.0
1993-11-15,34.0
1993-11-16,32.0
1993-11-17,31.0
1993-11-18,30.0
1993-11-19,30.0
1993-11-20,29.0
1993-11-21,29.0
1993-11-22,27.0
1993-11-23,27.0
1993-11-24,27.0
1993-11-25,27.0
1993-11-26,27.0
1993-11-27,27.0
1993-11-28,25.0
1993-11-29,25.0
1993-11-30,23.0
1993-12-01,23.0
1993-12-02,22.0
1993-12-03,22.0
1993-12-04,21.0
1993-12-05,21.0
1993-12-06,20.0
1993-12-07,20.0
1993-12-08,20.0
1993-12-09,19.0
1993-12-10,19.0
1993-12-11,19.0
1993-12-12,19.0
1993-12-13,19.0
1993-12-14,19.0
1993-12-15,19.0
1993-12-16,19.0
1993-12-17,18.0
1993-12-18,18.0
1993-12-19,17.0
1993-12-20,17.0
1993-12-21,18.0
1993-12-22,18.0
1993-12-23,19.0
1993-12-24,19.0
1993-12-25,18.0
1993-12-26,18.0
1993-12-27,17.0
1993-12-28,16.0
1993-12-29,16.0
1993-12-30,16.0
1993-12-31,16.0
1994-01-01,16.0
1994-01-02,16.0
1994-01-03,16.0
1994-01-04,15.0
1994-01-05,15.0
1994-01-06,15.0
1994-01-07,15.0
1994-01-08,15.0
1994-01-09,15.0
1994-01-10,15.0
1994-01-11,16.0
1994-01-12,16.0
1994-01-13,16.0
1994-01-14,16.0
1994-01-15,15.0
1994-01-16,16.0
1994-01-17,16.0
1994-01-18,16.0
1994-01-19,16.0
1994-01-20,16.0
1994-01-21,15.0
1994-01-22,15.0
1994-01-23,15.0
1994-01-24,14.0
1994-01-25,14.0
1994-01-26,14.0
1994-01-27,14.0
1994-01-28,14.0
1994-01-29,14.0
1994-01-30,14.0
1994-01-31,15.0
1994-02-01,17.0
1994-02-02,15.0
1994-02-03,13.0
1994-02-04,13.0
1994-02-05,12.0
1994-02-06,12.0
1994-02-07,12.0
1994-02-08,12.0
1994-02-09,12.0
1994-02-10,12.0
1994-02-11,11.0
1994-02-12,11.0
1994-02-13,11.0
1994-02-14,12.0
1994-02-15,13.0
1994-02-16,175.0
1994-02-17,194.0
1994-02-18,203.0
1994-02-19,216.0
1994-02-20,240.0
1994-02-21,295.0
1994-02-22,280.0
1994-02-23,268.0
1994-02-24,308.0
1994-02-25,537.0
1994-02-26,533.0
1994-02-27,535.0
1994-02-28,639.0
1994-03-01,1000.0
1994-03-02,1020.0
1994-03-03,1020.0
1994-03-04,999.0
1994-03-05,561.0
1994-03-06,545.0
1994-03-07,489.0
1994-03-08,329.0
1994-03-09,355.0
1994-03-10,231.0
1994-03-11,76.0
1994-03-12,38.0
1994-03-13,28.0
1994-03-14,30.0
1994-03-15,51.0
1994-03-16,52.0
1994-03-17,64.0
1994-03-18,59.0
1994-03-19,47.0
1994-03-20,47.0
1994-03-21,50.0
1994-03-22,54.0
1994-03-23,50.0
1994-03-24,63.0
1994-03-25,43.0
1994-03-26,49.0
1994-03-27,50.0
1994-03-28,70.0
1994-03-29,72.0
1994-03-30,62.0
1994-03-31,68.0
1994-04-01,64.0
1994-04-02,71.0
1994-04-03,76.0
1994-04-04,77.0
1994-04-05,41.0
1994-04-06,40.0
1994-04-07,46.0
1994-04-08,51.0
1994-04-09,48.0
1994-04-10,39.0
1994-04-11,55.0
1994-04-12,50.0
1994-04-13,44.0
1994-04-14,42.0
1994-04-15,45.0
1994-04-16,54.0
1994-04-17,53.0
1994-04-18,46.0
1994-04-19,53.0
1994-04-20,51.0
1994-04-21,57.0
1994-04-22,62.0
1994-04-23,62.0
1994-04-24,62.0
1994-04-25,65.0
1994-04-26,63.0
1994-04-27,59.0
1994-04-28,58.0
1994-04-29,56.0
1994-04-30,66.0
1994-05-01,63.0
1994-05-02,59.0
1994-05-03,64.0
1994-05-04,59.0
1994-05-05,64.0
1994-05-06,60.0
1994-05-07,63.0
1994-05-08,71.0
1994-05-09,65.0
1994-05-10,99.0
1994-05-11,439.0
1994-05-12,111.0
1994-05-13,64.0
1994-05-14,58.0
1994-05-15,52.0
1994-05-16,48.0
1994-05-17,45.0
1994-05-18,40.0
1994-05-19,39.0
1994-05-20,40.0
1994-05-21,39.0
1994-05-22,39.0
1994-05-23,46.0
1994-05-24,53.0
1994-05-25,52.0
1994-05-26,66.0
1994-05-27,209.0
1994-05-28,215.0
1994-05-29,844.0
1994-05-30,1150.0
1994-05-31,1190.0
1994-06-01,1280.0
1994-06-02,1280.0
1994-06-03,905.0
1994-06-04,887.0
1994-06-05,1140.0
1994-06-06,1150.0
1994-06-07,1150.0
1994-06-08,932.0
1994-06-09,538.0
1994-06-10,398.0
1994-06-11,409.0
1994-06-12,477.0
1994-06-13,540.0
1994-06-14,420.0
1994-06-15,253.0
1994-06-16,155.0
1994-06-17,94.0
1994-06-18,64.0
1994-06-19,55.0
1994-06-20,54.0
1994-06-21,51.0
1994-06-22,45.0
1994-06-23,162.0
1994-06-24,213.0
1994-06-25,220.0
1994-06-26,217.0
1994-06-27,219.0
1994-06-28,145.0
1994-06-29,61.0
1994-06-30,52.0
1994-07-01,46.0
1994-07-02,43.0
1994-07-03,41.0
1994-07-04,37.0
1994-07-05,33.0
1994-07-06,32.0
1994-07-07,29.0
1994-07-08,30.0
1994-07-09,62.0
1994-07-10,66.0
1994-07-11,55.0
1994-07-12,71.0
1994-07-13,53.0
1994-07-14,57.0
1994-07-15,59.0
1994-07-16,53.0
1994-07-17,52.0
1994-07-18,53.0
1994-07-19,54.0
1994-07-20,51.0
1994-07-21,98.0
1994-07-22,49.0
1994-07-23,45.0
1994-07-24,145.0
1994-07-25,261.0
1994-07-26,263.0
1994-07-27,267.0
1994-07-28,280.0
1994-07-29,275.0
1994-07-30,279.0
1994-07-31,292.0
1994-08-01,613.0
1994-08-02,633.0
1994-08-03,1070.0
1994-08-04,1110.0
1994-08-05,1130.0
1994-08-06,1130.0
1994-08-07,1120.0
1994-08-08,1070.0
1994-08-09,1020.0
1994-08-10,1010.0
1994-08-11,1030.0
1994-08-12,1020.0
1994-08-13,1030.0
1994-08-14,1020.0
1994-08-15,1020.0
1994-08-16,1010.0
1994-08-17,1020.0
1994-08-18,1020.0
1994-08-19,1020.0
1994-08-20,1010.0
1994-08-21,1010.0
1994-08-22,1120.0
1994-08-23,1030.0
1994-08-24,1020.0
1994-08-25,1020.0
1994-08-26,953.0
1994-08-27,509.0
1994-08-28,295.0
1994-08-29,165.0
1994-08-30,83.0
1994-08-31,82.0
1994-09-01,420.0
1994-09-02,148.0
1994-09-03,70.0
1994-09-04,78.0
1994-09-05,73.0
1994-09-06,66.0
1994-09-07,71.0
1994-09-08,75.0
1994-09-09,89.0
1994-09-10,101.0
1994-09-11,103.0
1994-09-12,93.0
1994-09-13,90.0
1994-09-14,95.0
1994-09-15,110.0
1994-09-16,116.0
1994-09-17,106.0
1994-09-18,80.0
1994-09-19,81.0
1994-09-20,73.0
1994-09-21,74.0
1994-09-22,77.0
1994-09-23,86.0
1994-09-24,83.0
1994-09-25,98.0
1994-09-26,89.0
1994-09-27,77.0
1994-09-28,78.0
1994-09-29,71.0
1994-09-30,72.0
1994-10-01,72.0
1994-10-02,577.0
1994-10-03,1030.0
1994-10-04,1030.0
1994-10-05,1080.0
1994-10-06,1020.0
1994-10-07,979.0
1994-10-08,572.0
1994-10-09,357.0
1994-10-10,277.0
1994-10-11,128.0
1994-10-12,87.0
1994-10-13,81.0
1994-10-14,75.0
1994-10-15,113.0
1994-10-16,106.0
1994-10-17,101.0
1994-10-18,92.0
1994-10-19,90.0
1994-10-20,84.0
1994-10-21,71.0
1994-10-22,55.0
1994-10-23,53.0
1994-10-24,57.0
1994-10-25,58.0
1994-10-26,50.0
1994-10-27,59.0
1994-10-28,76.0
1994-10-29,91.0
1994-10-30,70.0
1994-10-31,80.0
1994-11-01,93.0
1994-11-02,52.0
1994-11-03,43.0
1994-11-04,39.0
1994-11-05,38.0
1994-11-06,35.0
1994-11-07,34.0
1994-11-08,34.0
1994-11-09,33.0
1994-11-10,33.0
1994-11-11,34.0
1994-11-12,38.0
1994-11-13,33.0
1994-11-14,31.0
1994-11-15,29.0
1994-11-16,27.0
1994-11-17,26.0
1994-11-18,26.0
1994-11-19,25.0
1994-11-20,25.0
1994-11-21,24.0
1994-11-22,24.0
1994-11-23,23.0
1994-11-24,22.0
1994-11-25,22.0
1994-11-26,22.0
1994-11-27,22.0
1994-11-28,23.0
1994-11-29,22.0
1994-11-30,22.0
1994-12-01,20.0
1994-12-02,20.0
1994-12-03,21.0
1994-12-04,20.0
1994-12-05,21.0
1994-12-06,23.0
1994-12-07,21.0
1994-12-08,21.0
1994-12-09,21.0
1994-12-10,21.0
1994-12-11,21.0
1994-12-12,21.0
1994-12-13,21.0
1994-12-14,21.0
1994-12-15,20.0
1994-12-16,20.0
1994-12-17,20.0
1994-12-18,19.0
1994-12-19,19.0
1994-12-20,19.0
1994-12-21,19.0
1994-12-22,19.0
1994-12-23,19.0
1994-12-24,19.0
1994-12-25,19.0
1994-12-26,19.0
1994-12-27,18.0
1994-12-28,18.0
1994-12-29,17.0
1994-12-30,18.0
1994-12-31,18.0
1995-01-01,17.0
1995-01-02,17.0
1995-01-03,17.0
1995-01-04,17.0
1995-01-05,17.0
1995-01-06,18.0
1995-01-07,16.0
1995-01-08,16.0
1995-01-09,15.0
1995-01-10,15.0
1995-01-11,15.0
1995-01-12,15.0
1995-01-13,15.0
1995-01-14,16.0
1995-01-15,16.0
1995-01-16,17.0
1995-01-17,18.0
1995-01-18,19.0
1995-01-19,31.0
1995-01-20,78.0
1995-01-21,84.0
1995-01-22,90.0
1995-01-23,97.0
1995-01-24,102.0
1995-01-25,106.0
1995-01-26,109.0
1995-01-27,110.0
1995-01-28,109.0
1995-01-29,115.0
1995-01-30,121.0
1995-01-31,124.0
1995-02-01,121.0
1995-02-02,121.0
1995-02-03,121.0
1995-02-04,123.0
1995-02-05,122.0
1995-02-06,123.0
1995-02-07,123.0
1995-02-08,124.0
1995-02-09,125.0
1995-02-10,125.0
1995-02-11,127.0
1995-02-12,130.0
1995-02-13,130.0
1995-02-14,130.0
1995-02-15,127.0
1995-02-16,108.0
1995-02-17,247.0
1995-02-18,242.0
1995-02-19,247.0
1995-02-20,253.0
1995-02-21,257.0
1995-02-22,253.0
1995-02-23,265.0
1995-02-24,309.0
1995-02-25,711.0
1995-02-26,747.0
1995-02-27,781.0
1995-02-28,791.0
1995-03-01,1030.0
1995-03-02,1040.0
1995-03-03,1070.0
1995-03-04,975.0
1995-03-05,515.0
1995-03-06,465.0
1995-03-07,268.0
1995-03-08,261.0
1995-03-09,88.0
1995-03-10,63.0
1995-03-11,56.0
1995-03-12,41.0
1995-03-13,40.0
1995-03-14,37.0
1995-03-15,38.0
1995-03-16,44.0
1995-03-17,51.0
1995-03-18,52.0
1995-03-19,38.0
1995-03-20,52.0
1995-03-21,41.0
1995-03-22,32.0
1995-03-23,27.0
1995-03-24,31.0
1995-03-25,30.0
1995-03-26,32.0
1995-03-27,34.0
1995-03-28,34.0
1995-03-29,44.0
1995-03-30,39.0
1995-03-31,47.0
1995-04-01,40.0
1995-04-02,36.0
1995-04-03,42.0
1995-04-04,42.0
1995-04-05,39.0
1995-04-06,34.0
1995-04-07,36.0
1995-04-08,53.0
1995-04-09,52.0
1995-04-10,55.0
1995-04-11,52.0
1995-04-12,44.0
1995-04-13,46.0
1995-04-14,39.0
1995-04-15,32.0
1995-04-16,32.0
1995-04-17,32.0
1995-04-18,35.0
1995-04-19,36.0
1995-04-20,38.0
1995-04-21,36.0
1995-04-22,34.0
1995-04-23,38.0
1995-04-24,34.0
1995-04-25,35.0
1995-04-26,35.0
1995-04-27,37.0
1995-04-28,45.0
1995-04-29,54.0
1995-04-30,55.0
1995-05-01,43.0
1995-05-02,39.0
1995-05-03,41.0
1995-05-04,36.0
1995-05-05,40.0
1995-05-06,175.0
1995-05-07,49.0
1995-05-08,43.0
1995-05-09,43.0
1995-05-10,39.0
1995-05-11,39.0
1995-05-12,45.0
1995-05-13,42.0
1995-05-14,44.0
1995-05-15,44.0
1995-05-16,42.0
1995-05-17,45.0
1995-05-18,44.0
1995-05-19,44.0
1995-05-20,64.0
1995-05-21,60.0
1995-05-22,55.0
1995-05-23,134.0
1995-05-24,250.0
1995-05-25,265.0
1995-05-26,276.0
1995-05-27,270.0
1995-05-28,270.0
1995-05-29,277.0
1995-05-30,347.0
1995-05-31,634.0
1995-06-01,818.0
1995-06-02,829.0
1995-06-03,818.0
1995-06-04,918.0
1995-06-05,996.0
1995-06-06,986.0
1995-06-07,978.0
1995-06-08,962.0
1995-06-09,960.0
1995-06-10,980.0
1995-06-11,977.0
1995-06-12,982.0
1995-06-13,972.0
1995-06-14,973.0
1995-06-15,967.0
1995-06-16,962.0
1995-06-17,967.0
1995-06-18,964.0
1995-06-19,963.0
1995-06-20,973.0
1995-06-21,1030.0
1995-06-22,1100.0
1995-06-23,961.0
1995-06-24,986.0
1995-06-25,972.0
1995-06-26,981.0
1995-06-27,1030.0
1995-06-28,1050.0
1995-06-29,1030.0
1995-06-30,1040.0
1995-07-01,999.0
1995-07-02,395.0
1995-07-03,127.0
1995-07-04,108.0
1995-07-05,97.0
1995-07-06,82.0
1995-07-07,80.0
1995-07-08,71.0
1995-07-09,65.0
1995-07-10,59.0
1995-07-11,54.0
1995-07-12,48.0
1995-07-13,47.0
1995-07-14,44.0
1995-07-15,44.0
1995-07-16,48.0
1995-07-17,51.0
1995-07-18,49.0
1995-07-19,49.0
1995-07-20,49.0
1995-07-21,74.0
1995-07-22,65.0
1995-07-23,47.0
1995-07-24,45.0
1995-07-25,45.0
1995-07-26,67.0
1995-07-27,49.0
1995-07-28,38.0
1995-07-29,36.0
1995-07-30,34.0
1995-07-31,33.0
1995-08-01,182.0
1995-08-02,56.0
1995-08-03,56.0
1995-08-04,53.0
1995-08-05,42.0
1995-08-06,40.0
1995-08-07,38.0
1995-08-08,38.0
1995-08-09,46.0
1995-08-10,74.0
1995-08-11,54.0
1995-08-12,53.0
1995-08-13,53.0
1995-08-14,58.0
1995-08-15,617.0
1995-08-16,964.0
1995-08-17,959.0
1995-08-18,984.0
1995-08-19,980.0
1995-08-20,1330.0
1995-08-21,968.0
1995-08-22,977.0
1995-08-23,994.0
1995-08-24,982.0
1995-08-25,978.0
1995-08-26,960.0
1995-08-27,955.0
1995-08-28,951.0
1995-08-29,951.0
1995-08-30,947.0
1995-08-31,943.0
1995-09-01,943.0
1995-09-02,979.0
1995-09-03,958.0
1995-09-04,968.0
1995-09-05,983.0
1995-09-06,989.0
1995-09-07,982.0
1995-09-08,1060.0
1995-09-09,1160.0
1995-09-10,984.0
1995-09-11,262.0
1995-09-12,186.0
1995-09-13,152.0
1995-09-14,146.0
1995-09-15,149.0
1995-09-16,150.0
1995-09-17,138.0
1995-09-18,110.0
1995-09-19,101.0
1995-09-20,117.0
1995-09-21,113.0
1995-09-22,103.0
1995-09-23,108.0
1995-09-24,117.0
1995-09-25,92.0
1995-09-26,67.0
1995-09-27,59.0
1995-09-28,64.0
1995-09-29,69.0
1995-09-30,58.0
1995-10-01,61.0
1995-10-02,217.0
1995-10-03,68.0
1995-10-04,71.0
1995-10-05,63.0
1995-10-06,79.0
1995-10-07,97.0
1995-10-08,74.0
1995-10-09,84.0
1995-10-10,68.0
1995-10-11,56.0
1995-10-12,58.0
1995-10-13,51.0
1995-10-14,59.0
1995-10-15,80.0
1995-10-16,84.0
1995-10-17,51.0
1995-10-18,46.0
1995-10-19,51.0
1995-10-20,48.0
1995-10-21,48.0
1995-10-22,50.0
1995-10-23,64.0
1995-10-24,58.0
1995-10-25,49.0
1995-10-26,45.0
1995-10-27,47.0
1995-10-28,56.0
1995-10-29,52.0
1995-10-30,54.0
1995-10-31,67.0
1995-11-01,66.0
1995-11-02,51.0
1995-11-03,44.0
1995-11-04,40.0
1995-11-05,38.0
1995-11-06,36.0
1995-11-07,35.0
1995-11-08,33.0
1995-11-09,31.0
1995-11-10,29.0
1995-11-11,28.0
1995-11-12,28.0
1995-11-13,27.0
1995-11-14,26.0
1995-11-15,26.0
1995-11-16,25.0
1995-11-17,25.0
1995-11-18,25.0
1995-11-19,25.0
1995-11-20,25.0
1995-11-21,25.0
1995-11-22,24.0
1995-11-23,23.0
1995-11-24,23.0
1995-11-25,23.0
1995-11-26,23.0
1995-11-27,22.0
1995-11-28,22.0
1995-11-29,31.0
1995-11-30,49.0
1995-12-01,53.0
1995-12-02,54.0
1995-12-03,55.0
1995-12-04,54.0
1995-12-05,52.0
1995-12-06,53.0
1995-12-07,54.0
1995-12-08,53.0
1995-12-09,57.0
1995-12-10,58.0
1995-12-11,57.0
1995-12-12,56.0
1995-12-13,57.0
1995-12-14,59.0
1995-12-15,57.0
1995-12-16,63.0
1995-12-17,67.0
1995-12-18,67.0
1995-12-19,62.0
1995-12-20,59.0
1995-12-21,64.0
1995-12-22,62.0
1995-12-23,62.0
1995-12-24,61.0
1995-12-25,62.0
1995-12-26,63.0
1995-12-27,62.0
1995-12-28,60.0
1995-12-29,58.0
1995-12-30,62.0
1995-12-31,63.0
1996-01-01,63.0
1996-01-02,65.0
1996-01-03,68.0
1996-01-04,65.0
1996-01-05,65.0
1996-01-06,68.0
1996-01-07,63.0
1996-01-08,59.0
1996-01-09,64.0
1996-01-10,63.0
1996-01-11,64.0
1996-01-12,62.0
1996-01-13,62.0
1996-01-14,62.0
1996-01-15,62.0
1996-01-16,62.0
1996-01-17,62.0
1996-01-18,61.0
1996-01-19,59.0
1996-01-20,62.0
1996-01-21,64.0
1996-01-22,64.0
1996-01-23,66.0
1996-01-24,65.0
1996-01-25,62.0
1996-01-26,64.0
1996-01-27,61.0
1996-01-28,61.0
1996-01-29,59.0
1996-01-30,57.0
1996-01-31,56.0
1996-02-01,62.0
1996-02-02,58.0
1996-02-03,62.0
1996-02-04,63.0
1996-02-05,60.0
1996-02-06,59.0
1996-02-07,58.0
1996-02-08,57.0
1996-02-09,57.0
1996-02-10,56.0
1996-02-11,56.0
1996-02-12,56.0
1996-02-13,56.0
1996-02-14,55.0
1996-02-15,59.0
1996-02-16,105.0
1996-02-17,90.0
1996-02-18,45.0
1996-02-19,43.0
1996-02-20,44.0
1996-02-21,40.0
1996-02-22,33.0
1996-02-23,33.0
1996-02-24,38.0
1996-02-25,38.0
1996-02-26,34.0
1996-02-27,41.0
1996-02-28,36.0
1996-02-29,38.0
1996-03-01,44.0
1996-03-02,44.0
1996-03-03,38.0
1996-03-04,40.0
1996-03-05,46.0
1996-03-06,51.0
1996-03-07,50.0
1996-03-08,56.0
1996-03-09,62.0
1996-03-10,51.0
1996-03-11,61.0
1996-03-12,69.0
1996-03-13,70.0
1996-03-14,65.0
1996-03-15,62.0
1996-03-16,61.0
1996-03-17,65.0
1996-03-18,57.0
1996-03-19,44.0
1996-03-20,58.0
1996-03-21,44.0
1996-03-22,46.0
1996-03-23,41.0
1996-03-24,43.0
1996-03-25,43.0
1996-03-26,48.0
1996-03-27,49.0
1996-03-28,45.0
1996-03-29,45.0
1996-03-30,52.0
1996-03-31,55.0
1996-04-01,47.0
1996-04-02,54.0
1996-04-03,53.0
1996-04-04,53.0
1996-04-05,62.0
1996-04-06,57.0
1996-04-07,61.0
1996-04-08,41.0
1996-04-09,50.0
1996-04-10,41.0
1996-04-11,38.0
1996-04-12,38.0
1996-04-13,37.0
1996-04-14,39.0
1996-04-15,42.0
1996-04-16,46.0
1996-04-17,43.0
1996-04-18,42.0
1996-04-19,48.0
1996-04-20,49.0
1996-04-21,47.0
1996-04-22,47.0
1996-04-23,52.0
1996-04-24,52.0
1996-04-25,49.0
1996-04-26,43.0
1996-04-27,46.0
1996-04-28,41.0
1996-04-29,49.0
1996-04-30,49.0
1996-05-01,104.0
1996-05-02,1110.0
1996-05-03,1160.0
1996-05-04,1190.0
1996-05-05,1180.0
1996-05-06,1220.0
1996-05-07,1320.0
1996-05-08,1330.0
1996-05-09,1250.0
1996-05-10,1220.0
1996-05-11,1220.0
1996-05-12,1210.0
1996-05-13,1200.0
1996-05-14,1180.0
1996-05-15,1190.0
1996-05-16,1180.0
1996-05-17,984.0
1996-05-18,109.0
1996-05-19,49.0
1996-05-20,47.0
1996-05-21,44.0
1996-05-22,41.0
1996-05-23,38.0
1996-05-24,35.0
1996-05-25,33.0
1996-05-26,33.0
1996-05-27,31.0
1996-05-28,32.0
1996-05-29,30.0
1996-05-30,32.0
1996-05-31,35.0
1996-06-01,33.0
1996-06-02,32.0
1996-06-03,30.0
1996-06-04,29.0
1996-06-05,25.0
1996-06-06,28.0
1996-06-07,28.0
1996-06-08,26.0
1996-06-09,27.0
1996-06-10,26.0
1996-06-11,30.0
1996-06-12,79.0
1996-06-13,1040.0
1996-06-14,1130.0
1996-06-15,1150.0
1996-06-16,1060.0
1996-06-17,1060.0
1996-06-18,1070.0
1996-06-19,1070.0
1996-06-20,1070.0
1996-06-21,1070.0
1996-06-22,1080.0
1996-06-23,1070.0
1996-06-24,1030.0
1996-06-25,752.0
1996-06-26,995.0
1996-06-27,1070.0
1996-06-28,1050.0
1996-06-29,843.0
1996-06-30,855.0
1996-07-01,869.0
1996-07-02,861.0
1996-07-03,760.0
1996-07-04,152.0
1996-07-05,95.0
1996-07-06,81.0
1996-07-07,84.0
1996-07-08,103.0
1996-07-09,86.0
1996-07-10,200.0
1996-07-11,117.0
1996-07-12,94.0
1996-07-13,137.0
1996-07-14,101.0
1996-07-15,98.0
1996-07-16,79.0
1996-07-17,62.0
1996-07-18,68.0
1996-07-19,83.0
1996-07-20,68.0
1996-07-21,65.0
1996-07-22,53.0
1996-07-23,54.0
1996-07-24,55.0
1996-07-25,53.0
1996-07-26,65.0
1996-07-27,116.0
1996-07-28,112.0
1996-07-29,101.0
1996-07-30,83.0
1996-07-31,86.0
1996-08-01,123.0
1996-08-02,75.0
1996-08-03,52.0
1996-08-04,54.0
1996-08-05,47.0
1996-08-06,47.0
1996-08-07,73.0
1996-08-08,63.0
1996-08-09,50.0